[[{"header":{"parameterUnit":"m.s-1","parameterCategory":1,"la1":30.2991,"la2":30.254,"lo1":-89.0895,"lo2":-89.0444,"dy":0.0017,"dx":0.0017,"nx":28,"ny":28,"refTime":"2024-05-09T21:00:00:Z","depth":0,"parameterNumber":2,"parameterNumberName":"U-component_of_WINDS"},"data":[0,0,0,0,0,0,0,0,0,0,0,0,0,0,0,0,0,0,0,0,0,0,0,0,0,0,0,0,0,0,0,0,0,0,0,0,0,0,0,0,0,0,0,0,0,0,0,0,0,0,0,0,0,0,0,0,0,0,-0.6639,-0.664,0,-0.6748,-0.6749,-0.675,-0.6767,-0.6766,-0.6765,-0.6764,-0.6882,-0.6886,-0.689,0,0,0,0,0,0,0,0,0,0,0,0,0,-0.6449,-0.6453,-0.6639,-0.664,-0.6641,-0.6748,-0.6749,-0.6751,-0.6767,-0.6766,-0.6765,-0.6763,-0.688,-0.6885,-0.689,0,0,0,0,0,0,0,0,0,0,0,0,0,-0.6542,-0.6454,-0.6638,-0.6662,-0.6665,-0.6747,-0.6749,-0.6751,-0.6767,-0.6766,-0.6764,-0.6763,-0.6879,-0.6885,-0.6891,-0.6958,0,0,-0.6909,-0.6912,0,0,0,0,0,0,0,0,-0.6537,-0.6549,-0.6657,-0.6661,-0.6664,-0.6742,-0.6726,-0.6821,-0.6768,-0.6729,-0.6764,-0.6762,-0.6837,-0.6846,-0.687,-0.6964,-0.6969,-0.691,-0.6914,-0.6916,-0.6918,0,0,0,0,0,0,0,-0.6531,-0.6545,-0.6682,-0.6659,-0.6663,-0.6669,-0.6681,-0.6744,-0.679,-0.6732,-0.6733,-0.6746,-0.6838,-0.6864,-0.6873,-0.6971,-0.691,-0.6915,-0.6919,-0.6921,-0.7126,-0.7127,0,0,0,0,0,0,-0.6519,-0.6539,-0.6679,-0.6685,-0.6596,-0.6674,-0.6687,-0.6719,-0.6789,-0.6799,-0.6747,-0.6746,-0.6855,-0.6866,-0.6877,-0.6962,-0.6916,-0.6922,-0.6925,-0.7124,-0.7126,-0.7128,0,0,0,0,0,0,-0.6515,-0.6531,-0.6674,-0.6613,-0.6631,-0.6678,-0.6714,-0.6722,-0.6747,-0.6801,-0.6809,-0.6764,-0.6854,-0.6869,-0.6938,-0.6966,-0.6925,-0.693,-0.7122,-0.7125,-0.7127,-0.7131,0,0,0,0,0,0,-0.6509,-0.653,-0.6555,-0.6613,-0.6634,-0.6731,-0.6716,-0.6725,-0.6757,-0.6757,-0.6819,-0.6828,-0.6854,-0.6928,-0.6944,-0.6974,-0.6935,-0.712,-0.7123,-0.7126,-0.7128,-0.7133,-0.7137,0,0,0,0,0,-0.6503,-0.6553,-0.6556,-0.6573,-0.6667,-0.6733,-0.6745,-0.6772,-0.6759,-0.6786,-0.682,-0.6826,-0.696,-0.6935,-0.6953,-0.6985,-0.7118,-0.7122,-0.7126,-0.7126,-0.7132,-0.7137,0,0,0,0,0,0,-0.65,-0.6561,-0.6565,-0.6636,-0.6678,-0.6735,-0.677,-0.6777,-0.6826,-0.6825,-0.6857,-0.6871,-0.6939,-0.6969,-0.694,-0.7054,-0.7038,-0.7046,-0.7033,-0.7039,-0.7043,-0.7035,-0.694,0,0,0,0,0,-0.6506,-0.6553,-0.6605,-0.6662,-0.6683,-0.6723,-0.6753,-0.6769,-0.6816,-0.6835,-0.6874,-0.6921,-0.6973,-0.7007,-0.7058,-0.7132,-0.7147,-0.7163,-0.7167,-0.7171,-0.7178,-0.7219,-0.7227,-0.7141,-0.7141,-0.7141,0,0,-0.6523,-0.6562,-0.659,-0.6663,-0.6698,-0.6748,-0.6738,-0.6791,-0.6829,-0.6844,-0.6911,-0.6941,-0.6995,-0.7067,-0.71,-0.7094,-0.7204,-0.7176,-0.7178,-0.7183,-0.7224,-0.7232,-0.724,-0.7144,-0.7143,-0.7143,0,0,-0.6577,-0.6611,-0.6662,-0.6697,-0.675,-0.6775,-0.6787,-0.6843,-0.6863,-0.693,-0.6942,-0.6988,-0.7077,-0.7116,-0.7147,-0.7214,-0.7222,-0.723,-0.7254,-0.7294,-0.7301,-0.7308,-0.7333,-0.7341,-0.7236,-0.7236,-0.7236,0,-0.6591,-0.6665,-0.6688,-0.674,-0.6773,-0.6785,-0.6838,-0.6872,-0.6939,-0.6962,-0.6953,-0.7065,-0.7102,-0.7183,-0.7199,-0.7223,-0.724,-0.7224,-0.7298,-0.7304,-0.7311,-0.7335,-0.7344,-0.7237,-0.7236,-0.7236,-0.7236,0,-0.668,-0.673,-0.6766,-0.6828,-0.6864,-0.6916,-0.6949,-0.6983,-0.6996,-0.7022,-0.7091,-0.7136,-0.7197,-0.7217,-0.7231,-0.73,-0.7294,-0.7291,-0.7276,-0.7319,-0.7343,-0.7352,-0.7238,-0.7237,-0.7237,-0.7237,0,0,-0.6738,-0.6811,-0.6824,-0.6852,-0.691,-0.6951,-0.7004,-0.7061,-0.7089,-0.7135,-0.7182,-0.7256,-0.7253,-0.7288,-0.7306,-0.7341,-0.7393,-0.7334,-0.7336,-0.7345,-0.7473,-0.7476,-0.7486,-0.7397,-0.7399,-0.7401,-0.7469,0,-0.6801,-0.6894,-0.6916,-0.6997,-0.7044,-0.7056,-0.7102,-0.7144,-0.717,-0.7215,-0.7245,-0.7297,-0.7289,-0.731,-0.7345,-0.7379,-0.7419,-0.7374,-0.7443,-0.7445,-0.7431,-0.7499,-0.7502,-0.7565,-0.7478,-0.748,-0.7481,0,-0.6887,-0.6932,-0.7017,-0.7067,-0.7088,-0.7129,-0.7183,-0.7226,-0.7273,-0.729,-0.7328,-0.7342,-0.7399,-0.7379,-0.7459,-0.7428,-0.7457,-0.7478,-0.7481,-0.749,-0.7467,-0.7511,-0.7585,-0.7595,-0.7495,-0.7494,-0.7493,0,-0.6923,-0.7004,-0.7066,-0.7089,-0.715,-0.7179,-0.7206,-0.7251,-0.7284,-0.7331,-0.7353,-0.7407,-0.7437,-0.7479,-0.7508,-0.7491,-0.7586,-0.7568,-0.7604,-0.7603,-0.7625,-0.7624,-0.7706,-0.7641,-0.7641,-0.764,-0.764,0,-0.6991,-0.7043,-0.7082,-0.712,-0.7179,-0.7204,-0.7262,-0.7289,-0.7329,-0.7374,-0.7387,-0.7429,-0.7464,-0.7511,-0.7534,-0.7597,-0.7611,-0.7627,-0.7633,-0.7627,-0.7625,-0.7648,-0.7645,-0.7643,-0.7642,-0.7642,-0.7641,0,-0.7042,-0.707,-0.7138,-0.7189,-0.7203,-0.7244,-0.7288,-0.7326,-0.7351,-0.7408,-0.7422,-0.7463,-0.7519,-0.7551,-0.7622,-0.7638,-0.7709,-0.7712,-0.7692,-0.7695,-0.7729,-0.7726,-0.7831,-0.7846,-0.7769,-0.7769,-0.777,0,-0.7085,-0.7125,-0.7179,-0.7209,-0.7236,-0.7284,-0.7316,-0.7342,-0.7376,-0.7432,-0.7464,-0.752,-0.7566,-0.7655,-0.7692,-0.7747,-0.7753,-0.7785,-0.7761,-0.7754,-0.7755,-0.7753,-0.7758,-0.779,-0.7791,-0.7792,-0.7792,0,-0.7159,-0.7171,-0.7216,-0.7266,-0.7304,-0.7345,-0.7386,-0.741,-0.7444,-0.7481,-0.7537,-0.7573,-0.7644,-0.77,-0.7757,-0.7787,-0.7796,-0.7799,-0.781,-0.7806,-0.7793,-0.7802,-0.7705,-0.7797,-0.7797,-0.7796,-0.7796,-0.7796,-0.7209,-0.7245,-0.7288,-0.7338,-0.7371,-0.7409,-0.7447,-0.7475,-0.7522,-0.7581,-0.7593,-0.7653,-0.7699,-0.7776,-0.7807,-0.7855,-0.785,-0.7866,-0.787,-0.7874,-0.7876,-0.7783,-0.7865,-0.7865,-0.7865,-0.7865,-0.7865,0,-0.7285,-0.7312,-0.7358,-0.7414,-0.7453,-0.7455,-0.75,-0.7534,-0.7585,-0.7626,-0.7671,-0.7735,-0.7789,-0.783,-0.7885,-0.7916,-0.7922,-0.793,-0.7929,-0.7936,-0.7877,-0.7862,-0.7925,-0.7925,-0.7925,-0.7925,-0.7925,-0.7925,-0.7329,-0.739,-0.7406,-0.7483,-0.7511,-0.7568,-0.7594,-0.7629,-0.7662,-0.7732,-0.7777,-0.7801,-0.7843,-0.7901,-0.7951,-0.7962,-0.7982,-0.7991,-0.8002,-0.7947,-0.794,-0.7934,-0.7921,-0.7994,-0.7994,-0.8058,-0.8058,-0.8058]},{"header":{"parameterUnit":"m.s-1","parameterCategory":1,"la1":30.2991,"la2":30.254,"lo1":-89.0895,"lo2":-89.0444,"dy":0.0017,"dx":0.0017,"nx":28,"ny":28,"refTime":"2024-05-09T21:00:00:Z","depth":0,"parameterNumber":3,"parameterNumberName":"V-component_of_WINDS"},"data":[0,0,0,0,0,0,0,0,0,0,0,0,0,0,0,0,0,0,0,0,0,0,0,0,0,0,0,0,0,0,0,0,0,0,0,0,0,0,0,0,0,0,0,0,0,0,0,0,0,0,0,0,0,0,0,0,0,0,-6.5238,-6.5238,0,-6.5287,-6.5288,-6.5288,-6.5171,-6.5167,-6.5163,-6.516,-6.5206,-6.5211,-6.5215,0,0,0,0,0,0,0,0,0,0,0,0,0,-6.5036,-6.504,-6.5238,-6.5238,-6.5239,-6.5287,-6.5288,-6.5289,-6.5171,-6.5167,-6.5162,-6.5158,-6.5204,-6.521,-6.5216,0,0,0,0,0,0,0,0,0,0,0,0,0,-6.5108,-6.5042,-6.5238,-6.5186,-6.5182,-6.5287,-6.5288,-6.5289,-6.5172,-6.5167,-6.5161,-6.5156,-6.5203,-6.5209,-6.5216,-6.5372,0,0,-6.5238,-6.5241,0,0,0,0,0,0,0,0,-6.5104,-6.5116,-6.5193,-6.519,-6.5186,-6.5217,-6.5234,-6.5316,-6.5174,-6.5176,-6.516,-6.5153,-6.5214,-6.522,-6.5241,-6.5374,-6.5376,-6.5239,-6.5243,-6.5246,-6.5248,0,0,0,0,0,0,0,-6.51,-6.5113,-6.5257,-6.5194,-6.519,-6.5159,-6.5163,-6.5249,-6.5225,-6.5175,-6.5167,-6.5175,-6.5211,-6.5235,-6.5241,-6.5377,-6.5238,-6.5245,-6.5249,-6.5252,-6.5638,-6.5644,0,0,0,0,0,0,-6.5102,-6.511,-6.5255,-6.5259,-6.5131,-6.5167,-6.5172,-6.5213,-6.5224,-6.5221,-6.5179,-6.5169,-6.5225,-6.5233,-6.5242,-6.5425,-6.5246,-6.5252,-6.5256,-6.5632,-6.564,-6.5646,0,0,0,0,0,0,-6.5098,-6.5116,-6.5253,-6.5182,-6.5197,-6.5177,-6.5223,-6.5217,-6.524,-6.5227,-6.5222,-6.5209,-6.5221,-6.5233,-6.5341,-6.5425,-6.5256,-6.5262,-6.5625,-6.5635,-6.5643,-6.5792,0,0,0,0,0,0,-6.5093,-6.5115,-6.5175,-6.5184,-6.5201,-6.5353,-6.5229,-6.5222,-6.5253,-6.524,-6.5253,-6.525,-6.5218,-6.5331,-6.5348,-6.5432,-6.5268,-6.5618,-6.5629,-6.564,-6.5779,-6.5805,-6.5827,0,0,0,0,0,-6.5086,-6.5214,-6.5179,-6.5197,-6.5276,-6.5358,-6.5368,-6.5329,-6.5261,-6.532,-6.5312,-6.525,-6.5413,-6.5343,-6.5361,-6.5448,-6.5612,-6.5626,-6.5639,-6.5768,-6.58,-6.5826,0,0,0,0,0,0,-6.5214,-6.5214,-6.5175,-6.5311,-6.5336,-6.5338,-6.5412,-6.5363,-6.5407,-6.5392,-6.5341,-6.5345,-6.5463,-6.5466,-6.5388,-6.5599,-6.5501,-6.5519,-6.5593,-6.5622,-6.5645,-6.5642,-6.5273,0,0,0,0,0,-6.5258,-6.5326,-6.5322,-6.5442,-6.5456,-6.5433,-6.5466,-6.5435,-6.5458,-6.5467,-6.5466,-6.549,-6.5546,-6.5584,-6.5635,-6.5779,-6.5779,-6.5848,-6.5871,-6.5891,-6.5907,-6.5983,-6.6013,-6.5691,-6.5691,-6.5691,0,0,-6.535,-6.5358,-6.5404,-6.5468,-6.5483,-6.5553,-6.5442,-6.552,-6.5571,-6.5478,-6.5581,-6.5581,-6.5603,-6.573,-6.5786,-6.5737,-6.5996,-6.5908,-6.5924,-6.5929,-6.6,-6.603,-6.6057,-6.57,-6.5699,-6.5697,0,0,-6.5552,-6.5566,-6.5668,-6.5686,-6.5711,-6.5694,-6.5719,-6.5729,-6.5726,-6.5829,-6.576,-6.5819,-6.5918,-6.5936,-6.5959,-6.6169,-6.6114,-6.6187,-6.6311,-6.6386,-6.6411,-6.6433,-6.6508,-6.6535,-6.6203,-6.6203,-6.6204,0,-6.5663,-6.5767,-6.5725,-6.581,-6.5839,-6.576,-6.5861,-6.588,-6.592,-6.5942,-6.5886,-6.6008,-6.6017,-6.6147,-6.6199,-6.622,-6.6245,-6.6185,-6.6411,-6.6433,-6.6453,-6.6524,-6.6552,-6.6212,-6.6211,-6.621,-6.6209,0,-6.5901,-6.5975,-6.6053,-6.6097,-6.6135,-6.6227,-6.6198,-6.6241,-6.6206,-6.6195,-6.63,-6.6308,-6.636,-6.6388,-6.6354,-6.6513,-6.6482,-6.642,-6.632,-6.6493,-6.6559,-6.6585,-6.6225,-6.6222,-6.6219,-6.6217,0,0,-6.6186,-6.6206,-6.6235,-6.6254,-6.6276,-6.6331,-6.6419,-6.6471,-6.6509,-6.6539,-6.6611,-6.6697,-6.6639,-6.6665,-6.6632,-6.6698,-6.6863,-6.6627,-6.6626,-6.667,-6.7039,-6.7086,-6.7118,-6.6827,-6.6832,-6.6836,-6.7037,0,-6.6387,-6.654,-6.6505,-6.6656,-6.6723,-6.6648,-6.6725,-6.6746,-6.6738,-6.6792,-6.6781,-6.6843,-6.6763,-6.6778,-6.6839,-6.683,-6.6937,-6.6815,-6.6892,-6.6895,-6.6889,-6.7153,-6.7203,-6.7392,-6.7063,-6.7067,-6.707,0,-6.6641,-6.6684,-6.6842,-6.6854,-6.688,-6.695,-6.6995,-6.7048,-6.707,-6.7059,-6.7088,-6.7043,-6.7128,-6.7028,-6.7145,-6.7063,-6.7092,-6.7092,-6.7099,-6.7104,-6.6993,-6.7165,-6.7452,-6.7481,-6.711,-6.7107,-6.7104,0,-6.6833,-6.6929,-6.7036,-6.7055,-6.7071,-6.7122,-6.713,-6.7147,-6.718,-6.7219,-6.724,-6.7288,-6.7314,-6.7351,-6.7319,-6.7249,-6.744,-6.7337,-6.7433,-6.7434,-6.7476,-6.7474,-6.7772,-6.7496,-6.7495,-6.7495,-6.7494,0,-6.7061,-6.7161,-6.7123,-6.7189,-6.7298,-6.7256,-6.7364,-6.7364,-6.738,-6.7443,-6.738,-6.7441,-6.7395,-6.7451,-6.7426,-6.7526,-6.7538,-6.7531,-6.7523,-6.7537,-6.7538,-6.7555,-6.7541,-6.7502,-6.75,-6.7499,-6.7498,0,-6.7294,-6.7273,-6.7385,-6.7392,-6.7396,-6.7476,-6.748,-6.7541,-6.7528,-6.7609,-6.7625,-6.7605,-6.7668,-6.7639,-6.7705,-6.7688,-6.7817,-6.7791,-6.781,-6.7804,-6.7901,-6.7892,-6.822,-6.8261,-6.7958,-6.7961,-6.7964,0,-6.7441,-6.7516,-6.7532,-6.7571,-6.7585,-6.7648,-6.7682,-6.7643,-6.7681,-6.7712,-6.7769,-6.7826,-6.787,-6.7974,-6.7964,-6.8013,-6.7988,-6.81,-6.7995,-6.8007,-6.799,-6.7986,-6.7993,-6.8121,-6.8124,-6.8127,-6.813,0,-6.7704,-6.769,-6.7743,-6.7793,-6.7837,-6.7874,-6.7905,-6.794,-6.7902,-6.7947,-6.8012,-6.8046,-6.8114,-6.8171,-6.8215,-6.8221,-6.817,-6.8163,-6.8187,-6.8202,-6.821,-6.8207,-6.7868,-6.8155,-6.8153,-6.8151,-6.8149,-6.8148,-6.7898,-6.7962,-6.7983,-6.8044,-6.8064,-6.8095,-6.8152,-6.8147,-6.8201,-6.8254,-6.8227,-6.8302,-6.8321,-6.8374,-6.8388,-6.8445,-6.8401,-6.8437,-6.8446,-6.8455,-6.8468,-6.8202,-6.8453,-6.8452,-6.8451,-6.845,-6.845,0,-6.8158,-6.8168,-6.8225,-6.8272,-6.832,-6.8268,-6.83,-6.8343,-6.8411,-6.8434,-6.8479,-6.8553,-6.8608,-6.8603,-6.8654,-6.87,-6.8678,-6.8715,-6.8711,-6.8714,-6.8505,-6.8479,-6.8732,-6.8732,-6.8732,-6.8732,-6.8732,-6.8732,-6.8299,-6.8404,-6.8392,-6.8506,-6.8514,-6.8589,-6.8612,-6.8639,-6.8658,-6.8744,-6.879,-6.8787,-6.8798,-6.885,-6.8898,-6.8895,-6.8916,-6.8963,-6.8951,-6.8756,-6.8728,-6.8701,-6.8676,-6.8968,-6.8968,-6.9155,-6.9156,-6.9158]}]]